Miscellaneous Local Product
Issued by NWS North Platte, NE

Home | Current Version | Previous Version | Text Only | Print | Product List | Glossary On
Versions: 1 2 3 4 5 6 7 8 9 10 11 12 13 14 15 16 17 18 19 20 21 22 23 24 25 26 27 28 29 30 31 32 33 34 35 36 37 38 39 40 41 42 43 44 45 46 47 48 49 50
000
AXUS43 KLBF 010710
MISLBF


WESTERN AND NORTH CENTRAL NEBRASKA HOURLY WEATHER ROUNDUP
NATIONAL WEATHER SERVICE NORTH PLATTE NE
200 AM CDT TUE SEP 01 2015

NOTE: "FAIR" INDICATES FEW OR NO CLOUDS BELOW 12,000 FEET WITH NO
SIGNIFICANT WEATHER AND/OR OBSTRUCTIONS TO VISIBILITY.

NOTE: STATIONS NOT REPORTING VARIABLES SUCH AS SKY/WEATHER OR
PRESSURE ARE PROVIDED BY THE NEBRASKA DEPARTMENT OF
ROADS...RAWS...AND APRS NETWORKS...AND ARE NOT UNDER
NATIONAL WEATHER SERVICE QUALITY CONTROL.

...OBSERVATIONS IN AND NEAR THE EASTERN PANHANDLE OF NEBRASKA...

CITY           SKY/WX    TMP DP  RH WIND       PRES   REMARKS
PINE RIDGE     CLEAR     63  53  70 CALM      29.94S
CHADRON        CLEAR     58  51  78 NE3       29.93S
ALLIANCE       MOCLDY    62  52  69 S7        30.00S
SIDNEY         MOCLDY    63  54  72 SW9       30.04F
CRESCENT LAKE    N/A     68  52  56 SE3         N/A
BIG SPRINGS      N/A     67  60  79 S6          N/A
$$

...OBSERVATIONS IN NORTH CENTRAL NEBRASKA...

CITY           SKY/WX    TMP DP  RH WIND       PRES   REMARKS
VALENTINE      CLOUDY    62  59  90 NW3       29.95S
THEDFORD       CLOUDY    68  65  90 CALM      29.96F
AINSWORTH      MOCLDY    66  64  91 CALM      29.94F
O`NEILL        MOCLDY    73  69  90 S3        29.92S
ORD            PTCLDY    67  64  90 CALM      29.90F
BROKEN BOW     CLOUDY    73  66  78 SE5       29.92F
SPRINGVIEW       N/A     66  63  90 CALM        N/A
SARGENT          N/A     71  67  86 CALM        N/A
CHAMBERS         N/A     69  67  92 S3          N/A
EWING            N/A     69  64  83 CALM        N/A
$$

...OBSERVATIONS IN SOUTHWEST NEBRASKA AND FAR NORTHEAST COLORADO...

CITY           SKY/WX    TMP DP  RH WIND       PRES   REMARKS
WRAY           CLOUDY    65  61  84 N8        29.99F
HOLYOKE        RAIN      64  61  88 E7        30.01F
IMPERIAL       CLOUDY    69  60  73 W12       29.98F
OGALLALA       LGT RAIN  67  62  82 SW6       29.99F
NORTH PLATTE   CLOUDY    71  58  63 NE6       29.94F
MCCOOK         CLOUDY    77  53  43 S6        29.92R
LEXINGTON      CLOUDY    69  62  78 SE5       29.92F
PAXTON           N/A     68  64  85 CALM        N/A
BRADY            N/A     71  63  77 CALM        N/A
CALLAWAY         N/A     71  67  86 W3          N/A
$$

...OBSERVATIONS IN CENTRAL LINCOLN COUNTY AREA...

CITY           SKY/WX    TMP DP  RH WIND       PRES   REMARKS
N.P. AIRPORT   CLOUDY    71  58  63 NE6       29.94F
N.P. DOWNTOWN    N/A     72  60  65 CALM        N/A
N.P. SOUTHEAST   N/A     73  60  63 CALM        N/A
N.P. HILLCREST   N/A     72  61  67 NE8         N/A
$$

...SOME OBSERVATIONS FROM AROUND THE REGION...

CITY           SKY/WX    TMP DP  RH WIND       PRES   REMARKS
DENVER         MOCLDY    61  53  75 SW6       30.14F
LARAMIE        PTCLDY    50  43  77 SE9       30.22S
CHEYENNE       PTCLDY    56  46  69 CALM      30.15S
SCOTTSBLUFF    PTCLDY    59  54  83 CALM      30.01R
RAPID CITY     PTCLDY    58  56  93 SE6       29.91F
PIERRE         PTCLDY    60  59  96 NE3       29.89F
WINNER         FAIR      69  62  78 CALM      29.93R
SIOUX FALLS    MOCLDY    72  67  84 CALM      29.91S
OMAHA          CLEAR     74  70  87 S8        29.93S
GRAND ISLAND   CLEAR     68  64  87 S8        29.93R
KANSAS CITY    CLEAR     74  68  81 S10       29.99S
WICHITA        PTCLDY    74  65  73 S9        29.99R
HAYS           CLEAR     75  52  43 S14       29.96S
LIBERAL        MOCLDY    68  50  52 S8        30.02R
GOODLAND       TSTM      65  62  90 VRB5      29.96F
$$



USA.gov is the U.S. government's official web portal to all federal, state and local government web resources and services.